Regional Weather Roundup
Issued by NWS

Home | Current Version | Previous Version | Text Only | Print | Product List | Glossary On
Versions: 1 2 3 4 5 6 7 8 9 10 11 12 13 14 15 16 17 18 19 20 21 22 23 24 25 26 27 28 29 30 31 32 33 34 35 36 37 38 39 40 41 42 43 44 45 46 47 48 49 50
000
ASUS45 KPSR 190410
RWRAZ

ARIZONA REGIONAL HOURLY WEATHER ROUNDUP
NATIONAL WEATHER SERVICE PHOENIX AZ
900 PM MST THU DEC 18 2014

NOTE: FAIR INDICATES FEW OR NO CLOUDS BELOW 12,000 FEET WITH NO
SIGNIFICANT WEATHER AND/OR OBSTRUCTIONS TO VISIBILITY.

AZZ001>003-036-190500-
NORTHWEST ARIZONA

CITY           SKY/WX    TMP DP  RH WIND       PRES   REMARKS
BULLHEAD CITY  CLEAR     54  41  62 NE8       30.20S
KINGMAN        CLEAR     39  36  89 E10       30.21S WCI  32
$$

AZZ004>008-015-016-018-190500-
NORTH CENTRAL ARIZONA

CITY           SKY/WX    TMP DP  RH WIND       PRES   REMARKS
GRAND CANYON   CLEAR     25  23  92 CALM      30.20R
PRESCOTT       CLEAR     32  27  81 S5        30.19R WCI  27
FLAGSTAFF      CLEAR     22  19  89 CALM      30.19R FOG
PAYSON         CLEAR     36  32  87 NE5       30.20R WCI  32
PAGE           CLEAR     38  31  76 SW5       30.18R HAZE    WCI  34
$$

AZZ009>014-017-190500-
NORTHEAST ARIZONA

CITY           SKY/WX    TMP DP  RH WIND       PRES   REMARKS
WINSLOW        CLEAR     31  29  92 CALM      30.20R
SAINT JOHNS    PTCLDY    30  29  96 CALM      30.17R
WINDOW ROCK    CLEAR     28  24  85 S3        30.17S
SHOW LOW       MOCLDY    27  25  93 CALM      30.20R
$$

AZZ023-190500-
GREATER PHOENIX AREA

CITY           SKY/WX    TMP DP  RH WIND       PRES   REMARKS
PHOENIX        CLEAR     54  43  66 SW3       30.16R
BUCKEYE          N/A     46  46 100 N5        30.18R
LUKE AFB       CLEAR     50  46  87 W3        30.16R
DEER VALLEY    CLEAR     49  43  80 CALM      30.16R
SCOTTSDALE     CLEAR     51  43  74 CALM      30.17R
MESA-GATEWAY   PTCLDY    46  45  93 CALM      30.18R
CHANDLER       CLEAR     50  45  81 CALM      30.17R
$$

AZZ027-028-190500-
SOUTHWEST MARICOPA COUNTY AND PINAL COUNTY

CITY           SKY/WX    TMP DP  RH WIND       PRES   REMARKS
CASA GRANDE    CLEAR     46  43  87 CALM      30.17R
GILA BEND      CLEAR     49  46  90 S5        30.18R
$$

AZZ503-504-507>509-190500-
SOUTHEAST ARIZONA

CITY           SKY/WX    TMP DP  RH WIND       PRES   REMARKS
TUCSON         CLEAR     47  40  76 SW7       30.19R
DAVIS-MONTHAN  CLEAR     45  41  86 S3        30.17R
NOGALES        CLEAR     40  36  86 NE5       30.16S
SIERRA VISTA   PTCLDY    39  37  93 CALM      30.17S
DOUGLAS        CLEAR     37  35  92 NW8       30.17R WCI  31
SAFFORD        CLEAR     42  40  92 NW7       30.16R
$$

AZZ020-021-025-026-031-190500-
SOUTHWEST ARIZONA

CITY           SKY/WX    TMP DP  RH WIND       PRES   REMARKS
YUMA           PTCLDY   N/A N/A N/A CALM      30.17S
$$

CAZ031-033-041-043-047-048-061-190500-
SOUTHERN CALIFORNIA

CITY           SKY/WX    TMP DP  RH WIND       PRES   REMARKS
DOWNTOWN L.A.  CLEAR     55  49  80 CALM      30.20R
L.A. AIRPORT   PTCLDY    58  51  78 N3        30.21R
SAN DIEGO      MOCLDY    61  50  67 CALM      30.22R
BURBANK        CLEAR     53  46  77 CALM      30.20R
ONTARIO        PTCLDY    53  45  74 NW6       30.20R
RIVERSIDE      CLEAR     52  45  77 CALM      30.21R
PALM SPRINGS   CLEAR     58  43  57 W6        30.21R
EL CENTRO NAS  PTCLDY    55  45  68 SW3       30.18R
IMPERIAL       CLEAR     53  43  68 CALM      30.18R
BLYTHE         CLEAR     53  46  77 NW5       30.18S
NEEDLES        CLEAR     52  42  69 W7        30.19R
$$

NVZ020-UTZ003-190500-
SOUTHERN NEVADA-UTAH

CITY           SKY/WX    TMP DP  RH WIND       PRES   REMARKS
LAS VEGAS      PTCLDY    50  38  63 SW7       30.17R
SALT LAKE CITY MOCLDY    34  29  82 SE7       30.18R WCI  28
$$

NMZ009-TXZ055-190500-
NEW MEXICO-WEST TEXAS

CITY           SKY/WX    TMP DP  RH WIND       PRES   REMARKS
ALBUQUERQUE    MOCLDY    39  28  64 N3        30.14R
EL PASO        MOCLDY    47  40  76 W14       30.13S
$$


........................KEY........................
SKY/WX - SKY CONDITION/WEATHER
TMP    - TEMPERATURE IN FAHRENHEIT
DP     - DEW POINT IN FAHRENHEIT
RH     - RELATIVE HUMIDITY IN PERCENT
WIND   - DIRECTION AND SPEED IN MILES PER HOUR (MPH)
VRB    - VARIABLE WIND DIRECTION
PRES   - MEAN SEA LEVEL PRESSURE IN INCHES OF MERCURY
         F - FALLING PRESSURE   R - RISING PRESSURE
         S - STEADY PRESSURE
VSB    - VISIBILITY IN MILES
HX     - HEAT INDEX IN FAHRENHEIT
WCI    - WIND CHILL INDEX IN FAHRENHEIT
TC     - TEMPERATURE IN CELSIUS WHICH IS ALSO KNOWN AS
         TEMPERATURE IN CENTIGRADE
AFB    - AIR FORCE BASE
         LUKE AFB IS LUKE AIR FORCE BASE
         DAVIS-MONTHAN IS DAVIS-MONTHAN AIR FORCE BASE
NAS    - NAVAL AIR STATION
         EL CENTRO NAS IS EL CENTRO NAVAL AIR STATION
N/A    - NOT AVAILABLE



USA.gov is the U.S. government's official web portal to all federal, state and local government web resources and services.